Weather History for Columbus, GA

Change the Weather History Date:

Thursday, December 13, 2012

  Actual Average Record
Temperature  
Mean Temperature 52 °F 49 °F  
Max Temperature 63 °F 60 °F 77 °F (1984)
Min Temperature 41 °F 39 °F 4 °F (1962)
Degree Days  
Heating Degree Days 13 16  
Month to date heating degree days 64 186  
Since 1 July heating degree days 394 518  
Cooling Degree Days 0 0  
Month to date cooling degree days 4 0  
Year to date cooling degree days 2618 2364  
Growing Degree Days 2 (Base 50)    
Moisture  
Dew Point 39 °F    
Average Humidity 64    
Maximum Humidity 89    
Minimum Humidity 39    
Precipitation  
Precipitation 0.00 in 0.13 in 1.14 in (2009)
Month to date precipitation 0.57 1.92  
Year to date precipitation 30.55 44.40  
Snow  
Snow 0.00 in 0.00 in 0.00 in (2001)
Month to date snowfall 0.0 0.0  
Since 1 July snowfall 0.0 0.0  
Snow Depth -    
Sea Level Pressure  
Sea Level Pressure 30.29 in    
Wind  
Wind Speed 5 mph (ENE)    
Max Wind Speed 13 mph    
Max Gust Speed 16 mph    
Visibility 10 miles    
Events      
T = Trace of Precipitation, MM = Missing Value Source: NWS Daily Summary

Daily Weather History Graph

Daily Weather History Graph

Search for Another Location

Airport:

Trip Planner

Search our weather history database for the weather conditions in past years. The results will help you decide how hot, cold, wet, or windy it might be!

Date:

Astronomy

Dec. 13, 2012 Rise Set
Actual Time 7:33 AM EST 5:35 PM EST
Civil Twilight 7:05 AM EST 6:02 PM EST
Nautical Twilight 6:35 AM EST 6:33 PM EST
Astronomical Twilight 6:05 AM EST 7:03 PM EST
Moon 7:41 AM EST (12/13) 6:15 PM EST (12/13)
Length of Visible Light 10h 56m
Length of Day
10h 02m
New Moon, 0% of the Moon is Illuminated
Dec 13
New Moon
Dec 20
First Quarter
Dec 28
Full
Jan 4
Last Quarter
Jan 11
New

Hourly Weather History & Observations

Time (EST) Temp. Windchill Dew Point Humidity Pressure Visibility Wind Dir Wind Speed Gust Speed Precip Events Conditions
12:51 AM 43.0 °F 41.3 °F 39.9 °F 89% 30.23 in 9.0 mi North 3.5 mph - N/A   Partly Cloudy
1:31 AM 42.8 °F - 39.2 °F 87% 30.23 in 10.0 mi Calm Calm - N/A   Mostly Cloudy
1:51 AM 45.0 °F 43.5 °F 39.9 °F 82% 30.24 in 10.0 mi NNE 3.5 mph - N/A   Overcast
2:51 AM 45.0 °F 42.6 °F 39.9 °F 82% 30.26 in 10.0 mi NNW 4.6 mph - N/A   Overcast
3:51 AM 45.0 °F - 39.9 °F 82% 30.26 in 10.0 mi Calm Calm - N/A   Overcast
4:51 AM 45.0 °F 43.5 °F 39.9 °F 82% 30.26 in 10.0 mi NNE 3.5 mph - N/A   Overcast
5:51 AM 46.4 °F 45.2 °F 39.2 °F 76% 30.27 in 10.0 mi NE 3.5 mph - N/A   Overcast
6:51 AM 46.0 °F 41.9 °F 39.0 °F 76% 30.29 in 10.0 mi ENE 8.1 mph - N/A   Overcast
7:51 AM 46.0 °F 43.1 °F 37.9 °F 73% 30.31 in 10.0 mi ENE 5.8 mph - N/A   Overcast
8:15 AM 46.4 °F 45.2 °F 37.4 °F 71% 30.32 in 10.0 mi ENE 3.5 mph - N/A   Mostly Cloudy
8:51 AM 46.9 °F - 37.9 °F 71% 30.32 in 10.0 mi East 8.1 mph - N/A   Clear
9:51 AM 50.0 °F - 37.0 °F 61% 30.35 in 10.0 mi East 9.2 mph - N/A   Clear
10:51 AM 52.0 °F - 37.0 °F 57% 30.35 in 10.0 mi East 6.9 mph - N/A   Clear
11:51 AM 55.0 °F - 37.9 °F 53% 30.33 in 10.0 mi ENE 9.2 mph - N/A   Clear
12:51 PM 57.0 °F - 37.9 °F 49% 30.30 in 10.0 mi East 11.5 mph - N/A   Clear
1:51 PM 59.0 °F - 37.9 °F 46% 30.28 in 10.0 mi Variable 4.6 mph - N/A   Clear
2:51 PM 61.0 °F - 37.9 °F 42% 30.27 in 10.0 mi ESE 6.9 mph - N/A   Clear
3:51 PM 62.1 °F - 37.0 °F 39% 30.27 in 10.0 mi Calm Calm - N/A   Clear
4:51 PM 60.1 °F - 37.0 °F 42% 30.27 in 10.0 mi East 8.1 mph - N/A   Clear
5:51 PM 57.2 °F - 39.2 °F 51% 30.27 in 10.0 mi East 5.8 mph - N/A   Clear
7:51 PM 52.0 °F - 39.9 °F 63% 30.31 in 10.0 mi East 5.8 mph - N/A   Clear
8:51 PM 50.0 °F - 39.9 °F 68% 30.32 in 10.0 mi East 4.6 mph - N/A   Clear
9:51 PM 48.0 °F - 39.9 °F 74% 30.32 in 10.0 mi ENE 3.5 mph - N/A   Clear
10:51 PM 46.4 °F 45.2 °F 39.2 °F 76% 30.32 in 10.0 mi ENE 3.5 mph - N/A   Clear
11:51 PM 44.1 °F 42.5 °F 39.0 °F 82% 30.32 in 10.0 mi ENE 3.5 mph - N/A   Clear